Regional Weather Roundup
Issued by NWS

Home | Current Version | Previous Version | Graphics & Text | Print | Product List | Glossary Off
Versions: 1 2 3 4 5 6 7 8 9 10 11 12 13 14 15 16 17 18 19 20 21 22 23 24 25 26 27 28 29 30 31 32 33 34 35 36 37 38 39 40 41 42 43 44 45 46 47 48 49 50

000
ASUS43 KFSD 310802
RWRSD

WEATHER ROUNDUP FOR SOUTH DAKOTA
NATIONAL WEATHER SERVICE SIOUX FALLS SD
300 AM CDT MON AUG 31 2015

NOTE: "FAIR" INDICATES FEW OR NO CLOUDS BELOW 12,000 FEET WITH NO
SIGNIFICANT WEATHER AND/OR OBSTRUCTIONS TO VISIBILITY.


SDZ001>005-009-010-012>017-310900-
NORTHWEST AND NORTH CENTRAL SOUTH DAKOTA

CITY           SKY/WX    TMP DP  RH WIND       PRES   REMARKS
FAITH            N/A     73  54  51 MISG      29.68F
MOBRIDGE       CLOUDY    74  61  63 S13       29.61F
$$

SDZ012>016-024>037-041>051-057-063-072>074-310900-
SOUTHWEST AND SOUTH CENTRAL SOUTH DAKOTA

CITY           SKY/WX    TMP DP  RH WIND       PRES   REMARKS
RAPID CTY ARPT MOCLDY    74  51  44 SW7       29.77F
PIERRE         PTCLDY    71  60  68 SE14      29.69F
CUSTER         MOCLDY    67  44  43 W6        29.96F
ELLSWORTH AFB  MOCLDY    74  53  47 SW7       29.75F
PHILIP         CLOUDY    76  49  38 S7        29.69F
PINE RIDGE     CLOUDY    74  48  39 SW10      29.83R
WINNER         FAIR      74  55  51 S28G36    29.76F
$$

SDZ004>011-016>023-039-040-310900-
NORTHEAST SOUTH DAKOTA

CITY           SKY/WX    TMP DP  RH WIND       PRES   REMARKS
ABERDEEN       CLEAR     68  63  84 S16G25    29.72F
WATERTOWN      CLEAR     65  62  90 S10       29.83S
BROOKINGS      CLEAR     64  63  94 S13       29.89F
$$

SDZ017-020-022-023-036>040-048>070-310900-
SOUTHEAST SOUTH DAKOTA

CITY           SKY/WX    TMP DP  RH WIND       PRES   REMARKS
SIOUX FALLS    PTCLDY    66  64  93 S10       29.90S
HURON          CLEAR     66  64  93 S13       29.79S
CHAMBERLAIN    CLEAR     70  60  70 SE14      29.77F
MITCHELL       CLEAR     67  65  93 S12       29.83S
YANKTON        CLEAR     70  64  83 S7        29.88S
$$

ABBREVIATIONS USED IN REMARKS
   TC - TEMPERATURE IN CELSIUS
  WCI - WIND CHILL INDEX
   HX - HEAT INDEX
  VSB - VISIBILITY



USA.gov is the U.S. government's official web portal to all federal, state and local government web resources and services.